[[{"header":{"parameterUnit":"m.s-1","parameterCategory":1,"la1":30.2991,"la2":30.254,"lo1":-89.0895,"lo2":-89.0444,"dy":0.0017,"dx":0.0017,"nx":28,"ny":28,"refTime":"2025-05-27T09:00:00:Z","depth":0,"parameterNumber":2,"parameterNumberName":"U-component_of_WINDS"},"data":[0,0,0,0,0,0,0,0,0,0,0,0,0,0,0,0,0,0,0,0,0,0,0,0,0,0,0,0,0,0,0,0,0,0,0,0,0,0,0,0,0,0,0,0,0,0,0,0,0,0,0,0,0,0,0,0,0,0,2.437,2.437,0,2.4441,2.4441,2.4442,2.4447,2.4446,2.4446,2.4445,2.4519,2.4521,2.4524,0,0,0,0,0,0,0,0,0,0,0,0,0,2.4241,2.4244,2.437,2.4371,2.4371,2.444,2.4441,2.4442,2.4447,2.4446,2.4445,2.4445,2.4518,2.4521,2.4524,0,0,0,0,0,0,0,0,0,0,0,0,0,2.4303,2.4244,2.4369,2.4382,2.4384,2.444,2.4441,2.4443,2.4448,2.4446,2.4445,2.4444,2.4517,2.4521,2.4525,2.4574,0,0,2.4537,2.4539,0,0,0,0,0,0,0,0,2.43,2.4308,2.4379,2.4381,2.4384,2.4434,2.4423,2.4487,2.4448,2.4424,2.4445,2.4444,2.4492,2.4498,2.4514,2.4577,2.458,2.4538,2.454,2.4542,2.4543,0,0,0,0,0,0,0,2.4295,2.4305,2.4398,2.438,2.4383,2.4385,2.4393,2.4435,2.4463,2.4426,2.4426,2.4434,2.4493,2.451,2.4515,2.4581,2.4537,2.4541,2.4544,2.4545,2.4691,2.4692,0,0,0,0,0,0,2.4288,2.4301,2.4395,2.44,2.4338,2.4389,2.4397,2.4419,2.4463,2.4468,2.4435,2.4434,2.4503,2.4511,2.4518,2.4579,2.4542,2.4546,2.4548,2.4689,2.4691,2.4692,0,0,0,0,0,0,2.4285,2.4297,2.4393,2.4351,2.4363,2.4392,2.4417,2.4421,2.4438,2.447,2.4475,2.4447,2.4503,2.4512,2.456,2.4582,2.4547,2.4551,2.4687,2.469,2.4692,2.4701,0,0,0,0,0,0,2.4282,2.4296,2.4314,2.4351,2.4365,2.4433,2.4418,2.4423,2.4445,2.4444,2.4483,2.4488,2.4502,2.4554,2.4564,2.4587,2.4554,2.4686,2.4688,2.4691,2.4699,2.4703,2.4707,0,0,0,0,0,2.4277,2.4313,2.4314,2.4326,2.4388,2.4434,2.4442,2.4457,2.4447,2.4466,2.4487,2.4487,2.4578,2.4559,2.457,2.4594,2.4684,2.4688,2.4691,2.4697,2.4702,2.4707,0,0,0,0,0,0,2.4277,2.4318,2.432,2.4369,2.4398,2.4435,2.4459,2.4462,2.4495,2.4493,2.4511,2.452,2.4567,2.4586,2.4564,2.4645,2.463,2.4636,2.4631,2.4636,2.464,2.4635,2.4558,0,0,0,0,0,2.4283,2.4316,2.435,2.439,2.4405,2.4429,2.445,2.4459,2.449,2.4502,2.4527,2.4557,2.4593,2.4615,2.465,2.4702,2.4711,2.4724,2.4728,2.4731,2.4736,2.4767,2.4773,2.4703,2.4703,2.4703,0,0,2.4295,2.4322,2.4341,2.4391,2.4414,2.4449,2.4439,2.4476,2.4502,2.4508,2.4555,2.4574,2.4609,2.466,2.4683,2.4677,2.4758,2.4736,2.4738,2.4741,2.4771,2.4777,2.4783,2.4705,2.4705,2.4704,0,0,2.4335,2.4358,2.4394,2.4419,2.4454,2.4471,2.448,2.4517,2.453,2.4577,2.4582,2.4614,2.4675,2.47,2.4721,2.4773,2.4775,2.4784,2.4804,2.4834,2.484,2.4845,2.4864,2.4871,2.4788,2.4788,2.4788,0,2.4345,2.4397,2.4413,2.445,2.4472,2.4479,2.4517,2.454,2.4586,2.4601,2.4593,2.4671,2.4695,2.4752,2.4765,2.4781,2.4793,2.4779,2.4837,2.4843,2.4848,2.4866,2.4874,2.4789,2.4789,2.4789,2.4789,0,2.4409,2.4445,2.4471,2.4514,2.454,2.4577,2.46,2.4624,2.4632,2.4649,2.4699,2.4728,2.4769,2.4784,2.4791,2.4843,2.4838,2.4834,2.4819,2.4855,2.4873,2.488,2.479,2.479,2.479,2.479,0,0,2.4449,2.4503,2.4512,2.4533,2.4574,2.4603,2.4641,2.4682,2.4702,2.4734,2.4768,2.482,2.4817,2.484,2.4851,2.4877,2.4918,2.487,2.4871,2.4878,2.4978,2.4981,2.4989,2.492,2.4922,2.4923,2.4975,0,2.4494,2.4562,2.4579,2.4637,2.4672,2.468,2.4714,2.4744,2.4762,2.4794,2.4815,2.4852,2.4844,2.4859,2.4885,2.4908,2.4938,2.4904,2.4952,2.4954,2.4943,2.4998,2.5001,2.5049,2.4982,2.4984,2.4985,0,2.4555,2.4589,2.4651,2.4689,2.4704,2.4734,2.4773,2.4804,2.4839,2.485,2.4878,2.4887,2.4929,2.4913,2.4971,2.4947,2.4969,2.4983,2.4985,2.499,2.4971,2.5005,2.5065,2.5072,2.4996,2.4995,2.4994,0,2.4579,2.464,2.4685,2.4703,2.4748,2.477,2.479,2.4823,2.4847,2.4882,2.4898,2.4937,2.4959,2.4989,2.5009,2.4995,2.5067,2.5052,2.5078,2.5078,2.5093,2.5091,2.5157,2.5106,2.5106,2.5106,2.5106,0,2.4627,2.4665,2.4697,2.4725,2.4768,2.4788,2.483,2.4851,2.4881,2.4914,2.4924,2.4954,2.4979,2.5014,2.503,2.5076,2.5086,2.5097,2.5101,2.5096,2.5095,2.511,2.5107,2.5108,2.5107,2.5107,2.5107,0,2.4661,2.4684,2.4734,2.4774,2.4785,2.4815,2.485,2.4878,2.4897,2.4939,2.495,2.498,2.5022,2.5045,2.5097,2.5108,2.516,2.5162,2.5148,2.515,2.5175,2.5173,2.5253,2.5265,2.5206,2.5206,2.5207,0,2.469,2.472,2.4763,2.4786,2.4807,2.4843,2.4868,2.4889,2.4914,2.4957,2.498,2.5022,2.5057,2.5123,2.5151,2.5191,2.5194,2.522,2.52,2.5195,2.5195,2.5193,2.5197,2.5223,2.5223,2.5224,2.5224,0,2.474,2.4751,2.4785,2.4825,2.4854,2.4887,2.4918,2.4937,2.4963,2.4992,2.5034,2.5061,2.5115,2.5157,2.52,2.5222,2.5228,2.523,2.5239,2.5234,2.5225,2.5231,2.5158,2.5228,2.5228,2.5227,2.5227,2.5227,2.4773,2.48,2.4836,2.4875,2.4901,2.4931,2.496,2.4983,2.5019,2.5064,2.5075,2.512,2.5156,2.5214,2.5238,2.5274,2.5269,2.5281,2.5284,2.5287,2.5288,2.5219,2.5282,2.5282,2.5282,2.5282,2.5282,0,2.4824,2.4848,2.4883,2.4928,2.496,2.4963,2.4999,2.5025,2.5064,2.5097,2.5131,2.5181,2.5223,2.5254,2.5297,2.532,2.5324,2.5331,2.5329,2.5334,2.529,2.5278,2.5327,2.5327,2.5327,2.5327,2.5327,2.5327,2.4854,2.4901,2.4916,2.4976,2.5,2.5044,2.5064,2.5093,2.5119,2.5174,2.5209,2.5229,2.5262,2.5307,2.5346,2.5354,2.5369,2.5376,2.5384,2.5342,2.5337,2.5333,2.5322,2.5379,2.5379,2.5426,2.5426,2.5427]},{"header":{"parameterUnit":"m.s-1","parameterCategory":1,"la1":30.2991,"la2":30.254,"lo1":-89.0895,"lo2":-89.0444,"dy":0.0017,"dx":0.0017,"nx":28,"ny":28,"refTime":"2025-05-27T09:00:00:Z","depth":0,"parameterNumber":3,"parameterNumberName":"V-component_of_WINDS"},"data":[0,0,0,0,0,0,0,0,0,0,0,0,0,0,0,0,0,0,0,0,0,0,0,0,0,0,0,0,0,0,0,0,0,0,0,0,0,0,0,0,0,0,0,0,0,0,0,0,0,0,0,0,0,0,0,0,0,0,1.0567,1.0567,0,1.0541,1.054,1.054,1.0522,1.0522,1.0522,1.0522,1.0494,1.0494,1.0493,0,0,0,0,0,0,0,0,0,0,0,0,0,1.0601,1.0601,1.0567,1.0567,1.0566,1.0541,1.054,1.054,1.0522,1.0522,1.0522,1.0522,1.0495,1.0494,1.0493,0,0,0,0,0,0,0,0,0,0,0,0,0,1.0582,1.0601,1.0567,1.0554,1.0553,1.0541,1.054,1.054,1.0522,1.0522,1.0522,1.0522,1.0495,1.0494,1.0493,1.0491,0,0,1.049,1.049,0,0,0,0,0,0,0,0,1.0583,1.0581,1.0557,1.0555,1.0554,1.0535,1.0542,1.0524,1.0522,1.0534,1.0522,1.0522,1.0508,1.0506,1.0501,1.049,1.0489,1.049,1.049,1.0489,1.0489,0,0,0,0,0,0,0,1.0584,1.0582,1.0557,1.0556,1.0555,1.055,1.0547,1.0539,1.0522,1.0533,1.0532,1.0529,1.0507,1.0502,1.0501,1.0489,1.049,1.049,1.0489,1.0489,1.0474,1.0475,0,0,0,0,0,0,1.0588,1.0583,1.0558,1.0556,1.0568,1.0549,1.0546,1.0541,1.0522,1.0519,1.0529,1.0528,1.0504,1.0502,1.05,1.0496,1.0489,1.0489,1.0488,1.0474,1.0475,1.0475,0,0,0,0,0,0,1.0589,1.0586,1.0559,1.0569,1.0565,1.0549,1.0543,1.054,1.0536,1.0519,1.0516,1.0527,1.0504,1.0501,1.0494,1.0495,1.0488,1.0487,1.0474,1.0474,1.0475,1.049,0,0,0,0,0,0,1.059,1.0586,1.0585,1.0569,1.0565,1.0553,1.0543,1.054,1.0534,1.0533,1.0517,1.0514,1.0503,1.0495,1.0493,1.0494,1.0487,1.0474,1.0474,1.0475,1.0489,1.0491,1.0492,0,0,0,0,0,1.0591,1.0591,1.0585,1.0583,1.0564,1.0553,1.0551,1.0539,1.0534,1.0534,1.0523,1.0515,1.0495,1.0494,1.0492,1.0493,1.0474,1.0474,1.0475,1.0489,1.0491,1.0492,0,0,0,0,0,0,1.0608,1.0588,1.0582,1.0577,1.0567,1.055,1.0549,1.0541,1.0532,1.0531,1.0516,1.0513,1.0507,1.0499,1.0498,1.049,1.0484,1.0483,1.0495,1.0497,1.0498,1.05,1.0486,0,0,0,0,0,1.0611,1.0604,1.0588,1.0584,1.058,1.0565,1.056,1.0552,1.0541,1.0536,1.0525,1.0515,1.0506,1.0501,1.0492,1.0488,1.0484,1.0487,1.0489,1.049,1.049,1.0487,1.0488,1.0476,1.0476,1.0476,0,0,1.0617,1.0606,1.0602,1.0588,1.0579,1.0572,1.0562,1.0555,1.055,1.0535,1.0528,1.0519,1.0507,1.0501,1.0498,1.0494,1.0492,1.049,1.0491,1.0491,1.0487,1.0489,1.049,1.0476,1.0476,1.0476,0,0,1.0625,1.0616,1.0612,1.0604,1.059,1.0581,1.058,1.0564,1.0558,1.055,1.0539,1.0533,1.0519,1.051,1.0504,1.0508,1.05,1.0506,1.0513,1.051,1.0511,1.0512,1.0514,1.0515,1.0506,1.0506,1.0506,0,1.0634,1.0624,1.0611,1.0605,1.0599,1.0585,1.0582,1.0574,1.0558,1.0554,1.055,1.0532,1.0523,1.0515,1.0516,1.0511,1.051,1.0508,1.0512,1.0513,1.0513,1.0515,1.0516,1.0507,1.0507,1.0507,1.0507,0,1.0636,1.0629,1.0628,1.0614,1.0607,1.0602,1.0589,1.0583,1.0575,1.0566,1.0558,1.0546,1.0535,1.0532,1.0525,1.0523,1.0521,1.0515,1.0508,1.0516,1.0517,1.0517,1.0508,1.0508,1.0507,1.0507,0,0,1.0654,1.0633,1.0633,1.0626,1.061,1.0605,1.0599,1.0588,1.0584,1.0574,1.0569,1.0557,1.0551,1.0544,1.0535,1.0533,1.0537,1.0526,1.0526,1.0529,1.0535,1.054,1.0541,1.0531,1.0531,1.0532,1.0536,0,1.066,1.065,1.0638,1.0631,1.0625,1.0611,1.0607,1.0596,1.0587,1.058,1.057,1.0562,1.0555,1.0551,1.0548,1.0537,1.0538,1.0537,1.0527,1.0526,1.053,1.0541,1.0547,1.0551,1.0536,1.0536,1.0536,0,1.0665,1.0656,1.0649,1.0634,1.0631,1.0627,1.0616,1.0609,1.0597,1.0591,1.0583,1.0573,1.0566,1.0561,1.0551,1.055,1.0545,1.054,1.054,1.0538,1.0532,1.0541,1.0553,1.0553,1.0537,1.0537,1.0537,0,1.0679,1.0665,1.0659,1.0654,1.0636,1.0633,1.0626,1.0614,1.0608,1.0598,1.0594,1.0584,1.0578,1.057,1.0558,1.0555,1.055,1.0543,1.0544,1.0545,1.0544,1.0544,1.0556,1.0541,1.0541,1.0541,1.0541,0,1.0687,1.0683,1.0665,1.0661,1.0657,1.0643,1.0638,1.063,1.0619,1.0613,1.0601,1.0596,1.058,1.0573,1.0563,1.0557,1.0554,1.0549,1.0547,1.055,1.0551,1.0547,1.0546,1.0541,1.0541,1.0541,1.0541,0,1.0702,1.069,1.0682,1.0666,1.0662,1.0659,1.0645,1.0641,1.0631,1.0624,1.0622,1.0606,1.0597,1.0584,1.0571,1.0565,1.056,1.0556,1.0564,1.0563,1.0565,1.0565,1.0575,1.0575,1.056,1.056,1.056,0,1.0708,1.0705,1.0688,1.0684,1.0677,1.0669,1.0663,1.0649,1.0644,1.063,1.0627,1.0617,1.0609,1.0595,1.0583,1.0573,1.0568,1.0572,1.0567,1.0571,1.0568,1.0569,1.0569,1.0574,1.0574,1.0574,1.0574,0,1.072,1.0714,1.0705,1.0695,1.0688,1.068,1.067,1.0667,1.0651,1.0645,1.0636,1.0629,1.0616,1.0606,1.0595,1.0587,1.0578,1.0576,1.0576,1.058,1.0585,1.0582,1.0568,1.0576,1.0576,1.0576,1.0576,1.0575,1.073,1.0727,1.0715,1.0706,1.0697,1.0689,1.0684,1.0674,1.0666,1.0654,1.0647,1.0638,1.0626,1.0609,1.0602,1.0595,1.0591,1.0591,1.0591,1.0591,1.0592,1.0586,1.0592,1.0592,1.0592,1.0592,1.0592,0,1.0741,1.0733,1.0725,1.0712,1.0706,1.0698,1.0687,1.0682,1.0674,1.0664,1.0656,1.0645,1.0636,1.0623,1.0612,1.0609,1.0605,1.0607,1.0607,1.0605,1.0596,1.0597,1.061,1.061,1.061,1.061,1.061,1.061,1.0746,1.074,1.0733,1.0722,1.0714,1.0705,1.07,1.0692,1.0683,1.0672,1.0664,1.0656,1.0644,1.0633,1.0624,1.062,1.0617,1.0621,1.0616,1.0608,1.0606,1.0604,1.0605,1.062,1.062,1.0626,1.0626,1.0626]}]]